Terminal Aerodrome Forecast
Issued by NWS North Platte, NE

Home | Current Version | Previous Version | Text Only | Print | Product List | Glossary Off
Versions: 1 2 3 4 5 6 7 8 9 10 11 12

000
FTUS43 KLBF 281700
TAFVTN
TAF
KVTN 281721Z 2818/2918 08007KT P6SM SCT100
     FM290600 13006KT P6SM BKN070
     FM291500 15010KT P6SM SCT150=

USA.gov is the U.S. government's official web portal to all federal, state and local government web resources and services.